Location: Grand Moustoir
(47.8355°N, 3.3120°W)
Time: 16:11:55
(UTC+00:00)

NOSS 3-2 (A) - Pass Details

Date: 20 January 2020
Orbit: 810 x 1398 km, 63.4° (Epoch: 10 February)

Event Time Altitude Azimuth Distance (km) Brightness Sun altitude
Exits shadow 06:03:13 21° 311° (NW) 2,394 5.0 -18.3°
Maximum altitude 06:08:29 64° 237° (WSW) 1,403 4.1 -17.4°
Drops below altitude 10° 06:16:45 10° 158° (SSE) 3,421 6.8 -16.0°
Sets 06:19:45 0° 156° (SSE) 4,424 7.5 -15.6°
